Temperature
7 6 6 6 7 8 7 7 7 7 7 7 6 6 7 8 7 7 8 9 9 10 11 10 10 10 9 9 9 9 9 9 8 8 8 8 8 8 8 8 7 7 7 7
6 6 7 7 7 7 7 7 7 7 7 7 6 6 6 6 6 7 8 8 9 10 10 10 10 9 9 9 9 9 8 8 8 8 8 8 8 8 8 7 7 7 7 7
7 7 7 7 7 7 7 7 7 7 7 6 6 7 7 7 7 8 8 9 9 10 10 10 10 9 9 9 9 9 8 8 8 8 8 8 7 7 7 7 7 7 7 6
6 7 7 7 7 7 7 7 7 7 6 5 6 6 7 7 6 6 7 8 9 9 10 10 9 9 9 9 9 8 8 8 8 7 7 7 7 7 7 7 7 6 6 6
6 6 7 7 7 7 6 6 6 6 5 4 4 5 6 6 7 7 6 8 8 9 9 9 9 9 9 9 8 8 8 8 7 7 7 7 7 6 6 6 6 6 6 6
6 6 7 7 6 6 5 5 4 3 3 5 5 5 6 5 7 7 7 8 8 9 9 9 9 9 9 8 8 8 8 8 7 7 7 7 6 6 6 6 6 6 5 5
6 6 6 6 5 6 5 5 5 5 4 5 4 4 6 6 6 6 6 7 8 9 9 9 9 8 8 8 8 8 7 7 7 7 7 6 6 6 6 5 5 5 5 5
5 5 6 5 6 5 5 6 6 6 6 5 4 4 6 6 6 6 7 7 8 8 8 8 8 8 8 8 8 7 7 7 7 7 7 6 6 5 5 5 5 5 5 5
5 5 5 5 6 5 4 4 4 3 3 4 4 3 4 6 6 5 6 6 7 8 8 8 8 8 8 8 7 7 7 7 6 6 6 6 6 5 5 5 5 5 4 4
5 4 5 5 5 5 5 3 3 3 5 6 6 5 6 7 7 6 5 5 7 8 8 8 8 8 8 7 7 7 7 6 6 6 6 6 5 5 5 5 5 4 4 4
4 4 4 4 4 4 4 3 3 2 3 4 5 7 6 6 6 5 5 6 7 8 8 8 8 7 7 7 7 7 6 6 6 6 5 5 5 5 5 4 4 4 4 4
3 3 3 3 4 4 4 3 2 4 3 2 3 6 7 5 5 5 5 6 7 8 8 8 7 7 7 7 7 7 6 6 6 5 5 5 5 4 4 4 4 4 4 3
3 3 3 4 3 3 3 2 2 2 1 1 2 6 6 5 5 5 6 7 7 7 7 7 7 7 7 7 6 6 6 6 5 5 5 4 4 4 4 4 4 4 3 3
4 3 4 5 5 2 2 2 2 2 2 1 2 5 6 6 6 5 6 7 7 7 7 7 7 7 7 6 6 6 6 5 5 5 4 4 4 4 3 3 3 3 3 3
3 2 2 3 3 2 2 3 2 2 2 3 4 4 6 6 5 5 6 6 6 6 7 6 6 6 6 6 6 6 5 5 4 4 4 4 4 3 3 3 3 3 3 2
2 2 2 2 2 3 3 3 2 3 3 3 3 4 5 5 5 5 5 5 5 6 6 6 6 6 6 6 5 5 5 4 4 4 4 3 3 3 3 3 3 2 2 2
0 1 2 2 2 2 3 3 3 2 2 3 4 5 4 4 3 4 5 5 5 6 6 6 6 6 6 5 5 5 4 4 4 4 3 3 3 3 2 2 2 2 2 1
0 0 1 1 2 3 4 4 3 3 3 3 3 4 3 4 4 5 5 5 5 5 5 5 6 5 5 5 5 4 4 4 3 3 3 3 2 2 2 2 1 1 1 1
1 0 0 1 1 2 3 3 2 2 3 3 3 3 3 3 3 4 5 5 5 5 5 5 5 5 5 4 4 4 4 3 3 3 2 2 2 2 2 1 1 1 1 1
0 0 0 0 2 3 4 3 2 3 3 3 2 2 2 2 2 3 5 5 5 5 5 5 4 4 4 4 3 3 3 3 2 2 2 2 1 1 1 1 1 1 1 0
0 0 1 1 1 2 2 2 3 3 3 3 3 2 2 1 2 3 4 4 4 4 4 4 4 4 3 3 3 3 3 2 2 2 1 1 1 1 1 1 1 0 0 0
0 0 -0 0 1 2 2 1 2 2 3 3 3 3 2 2 3 3 3 3 3 3 3 3 3 3 3 3 2 2 2 2 1 1 1 1 1 1 0 0 0 0 -0 -0
-1 0 -0 0 2 1 2 2 3 3 3 3 3 2 2 2 2 2 2 2 2 2 2 2 2 2 2 2 2 1 1 1 1 1 1 1 0 0 0 -0 -0 -0 -1 -1
-2 -1 -1 -1 -0 0 1 2 2 3 3 2 2 2 2 2 1 1 1 1 2 2 2 2 2 2 1 1 1 1 0 0 0 0 0 -0 -0 -0 -0 -1 -1 -1 -1 -2
-1 -2 -1 -1 -1 -0 1 2 2 2 2 2 2 1 1 1 1 1 1 1 1 1 1 1 1 1 1 1 1 0 -0 -0 -0 -1 -1 -1 -1 -1 -1 -1 -1 -2 -2 -2
-2 -2 -1 -0 0 -0 1 2 2 2 1 1 1 1 1 1 1 1 1 1 0 0 0 0 0 0 0 0 0 -0 -0 -1 -1 -1 -1 -1 -1 -1 -1 -2 -1 -2 -2 -2
Wind_Speed
2 3 6 9 8 4 5 5 4 4 1 3 8 12 14 8 6 8 8 8 8 9 8 5 5 5 4 3 3 4 3 3 2 1 1 2 3 3 3 4 6 6 6 5
3 6 7 5 5 3 3 3 3 3 1 2 6 12 12 9 8 9 10 10 10 8 5 5 4 4 4 4 4 4 4 4 3 3 2 2 3 3 3 4 5 6 6 6
8 4 5 6 5 5 5 6 5 3 3 2 5 9 7 5 5 6 7 8 8 9 9 7 5 6 5 5 5 5 5 5 4 3 2 2 1 2 2 3 4 4 6 6
5 3 4 5 6 7 6 5 5 2 0 4 2 5 8 5 6 7 7 7 8 8 7 7 7 6 6 7 5 5 5 5 4 3 2 3 3 4 5 4 4 5 5 6
5 4 5 6 6 7 4 3 3 2 3 2 1 3 10 4 6 8 8 8 8 7 8 8 8 8 7 5 4 4 4 4 4 4 4 4 5 5 5 4 5 6 5 6
3 2 4 5 2 5 6 5 5 4 3 3 5 5 8 6 8 6 6 7 7 7 7 6 5 4 4 3 3 3 4 5 4 4 4 5 6 6 6 6 6 6 5 5
2 2 2 4 5 3 4 5 3 3 2 7 3 5 11 8 7 6 7 7 7 6 6 5 5 5 4 4 4 4 4 5 5 5 5 6 7 7 7 7 6 7 6 6
5 4 6 5 6 7 6 7 7 6 6 5 2 8 9 6 5 6 6 5 4 5 6 6 6 6 5 5 4 4 5 6 5 5 6 6 6 6 6 7 6 7 6 7
7 4 1 2 2 8 7 4 5 6 2 3 6 8 10 4 4 4 3 3 4 5 5 6 5 5 5 5 6 6 6 6 6 6 6 6 6 6 7 7 7 7 7 7
5 3 1 1 4 2 5 8 6 5 4 5 6 6 6 6 5 3 3 4 5 4 4 5 5 5 5 5 5 5 6 7 7 6 6 5 5 6 6 6 7 7 7 7
4 4 0 2 6 8 5 4 5 5 4 5 4 8 6 7 5 6 6 5 5 5 5 5 5 4 4 4 4 5 5 6 6 6 5 5 5 5 5 6 7 7 7 7
3 4 3 4 1 2 5 7 8 6 5 5 4 8 5 5 5 5 5 4 4 4 4 4 4 4 4 4 5 5 5 5 6 5 5 5 5 5 6 6 7 7 7 8
6 5 3 1 1 1 3 5 5 5 5 6 5 8 4 2 3 2 3 4 4 4 4 3 3 4 4 5 5 4 4 5 5 4 4 4 5 5 6 7 7 7 7 7
4 4 6 8 5 6 5 6 7 6 5 6 9 10 10 7 6 5 4 5 4 4 4 4 4 5 4 4 4 4 4 3 3 3 3 4 5 6 6 7 6 7 7 7
3 3 3 3 2 4 6 8 11 11 10 10 10 11 14 10 7 6 5 5 5 5 6 5 5 5 5 4 4 3 3 3 3 3 4 5 6 5 6 6 6 6 7 7
3 3 2 2 3 3 5 9 13 13 11 11 11 14 11 8 5 5 6 5 6 7 7 6 6 5 5 4 4 4 4 4 3 3 5 5 5 5 6 6 6 6 6 6
3 5 4 3 2 1 8 11 14 9 9 10 14 13 4 4 6 7 7 6 7 7 7 6 6 6 5 5 4 4 4 3 3 4 5 5 5 5 6 6 6 6 6 6
6 4 3 2 2 7 8 4 8 10 9 10 9 7 5 7 7 6 6 6 7 6 6 6 5 5 4 4 3 3 2 2 3 4 4 5 5 6 6 6 6 6 6 6
7 6 4 4 4 7 7 3 5 7 7 7 9 9 6 3 3 5 5 4 6 6 5 5 4 3 3 3 2 2 3 3 3 4 5 5 5 6 6 6 7 6 6 7
4 5 4 4 4 7 5 2 2 4 5 4 6 7 4 1 2 6 4 4 4 4 3 3 3 2 2 3 2 2 3 3 5 5 5 5 5 5 6 7 7 6 6 7
4 4 6 5 5 7 5 2 3 4 6 3 3 4 4 5 6 5 4 4 3 3 4 3 2 2 2 2 2 2 3 4 5 5 5 5 5 5 6 6 6 6 6 7
6 5 5 5 5 8 2 4 5 5 3 3 3 2 3 3 3 3 3 3 3 4 4 4 3 3 3 2 2 3 4 5 5 4 5 5 5 5 5 5 6 6 6 7
6 6 5 7 7 3 3 4 3 2 2 3 3 3 1 1 3 3 3 3 4 3 4 4 3 3 4 3 2 3 5 5 5 5 5 5 6 5 5 5 6 6 5 6
4 2 3 4 6 5 4 3 3 2 3 3 2 2 1 2 2 3 3 4 4 4 4 4 4 3 4 4 3 3 4 4 4 5 5 5 5 5 5 5 5 5 5 6
4 4 4 5 5 4 4 4 4 3 1 1 2 1 1 1 2 3 3 4 4 4 4 4 3 3 5 5 5 4 4 4 4 5 5 5 4 4 5 5 4 5 5 6
4 5 6 7 6 5 5 4 3 2 3 2 1 2 2 1 2 3 3 3 3 4 4 4 4 4 4 4 5 5 4 3 3 4 5 4 4 4 4 5 6 7 7 11
Wind_Direction
113 123 197 203 194 174 160 175 225 251 247 212 244 265 274 267 241 240 240 235 234 236 241 228 216 203 193 198 205 211 214 228 212 244 264 272 273 274 275 270 272 270 268 267
96 228 214 164 161 159 158 189 240 285 331 233 280 277 270 250 234 230 230 231 230 235 239 228 218 204 202 209 216 218 223 232 231 232 236 236 247 259 264 271 277 271 270 271
185 208 172 159 159 178 208 202 215 240 344 4 324 300 274 261 238 236 225 225 225 220 220 219 217 217 215 224 223 226 235 240 244 240 257 291 303 302 290 280 275 269 272 271
210 218 152 162 189 174 224 210 191 189 30 295 25 292 283 266 272 247 234 226 225 222 216 213 214 218 221 228 230 237 246 246 248 238 235 240 254 266 263 267 271 278 272 270
214 181 170 190 198 172 181 114 128 139 157 306 257 229 282 283 262 253 238 231 230 223 214 212 213 217 223 223 229 246 256 258 256 248 236 241 254 260 272 278 278 280 277 270
214 191 181 181 125 146 132 83 70 61 81 271 222 196 275 241 230 253 246 237 231 226 222 220 216 217 228 232 238 250 257 264 262 256 249 240 250 262 275 279 278 278 276 271
221 221 181 135 110 110 126 108 51 354 329 249 192 213 251 247 232 230 246 246 237 221 212 214 216 224 231 233 240 251 256 267 270 263 257 248 249 251 256 265 267 273 276 275
177 232 206 183 168 166 178 156 166 197 226 268 216 236 254 254 261 252 252 247 230 214 212 217 220 221 226 230 234 242 252 262 267 265 264 259 252 250 256 258 261 264 268 269
181 217 83 159 143 142 147 179 155 132 133 271 264 277 296 260 271 259 255 241 228 223 220 224 228 228 226 230 238 238 247 259 267 267 267 263 256 252 259 264 263 265 267 271
158 180 207 145 102 54 147 144 125 143 170 244 280 269 255 274 268 269 261 249 247 236 234 235 238 237 236 240 249 250 247 253 263 266 264 269 264 262 264 267 269 269 270 269
147 152 170 150 189 177 140 146 144 141 165 178 252 267 229 233 243 246 252 250 241 240 241 242 247 248 251 254 252 251 254 261 267 267 266 270 275 275 275 274 273 273 273 271
157 138 188 229 247 194 178 174 157 166 209 193 206 267 272 243 254 245 256 262 255 254 257 256 256 264 265 259 260 254 254 259 264 267 268 271 276 281 283 282 281 279 278 275
149 139 121 35 324 203 207 189 173 137 132 168 190 260 301 322 301 268 262 273 277 273 272 274 270 268 269 268 264 258 258 262 269 272 273 278 279 283 284 285 286 285 284 279
128 152 187 201 210 176 198 197 175 158 182 206 224 254 288 297 299 300 290 279 273 271 271 272 274 275 277 278 270 264 269 270 279 285 281 281 281 280 282 287 289 288 287 284
127 181 218 251 229 175 202 204 192 201 204 210 233 239 260 269 270 275 276 277 281 280 277 270 269 275 278 280 279 271 276 281 285 289 287 282 285 285 288 292 293 290 288 288
138 169 178 259 247 225 241 225 211 220 223 234 255 264 258 266 272 276 276 267 271 271 267 271 275 277 273 269 275 281 281 283 283 282 281 284 288 293 296 297 297 296 293 292
171 156 163 223 233 321 258 223 204 205 210 204 231 246 264 272 268 262 260 255 258 263 269 270 270 269 267 264 261 264 272 283 285 283 286 291 294 295 295 297 299 296 297 296
172 164 163 167 130 231 243 205 194 211 230 219 237 259 259 256 268 264 248 243 260 269 273 272 272 276 283 281 279 278 288 290 290 292 295 297 297 295 296 295 293 296 295 293
187 170 166 172 211 265 284 239 182 198 251 225 234 260 275 296 326 292 259 245 257 266 275 273 272 276 290 294 296 304 304 302 297 293 292 293 294 297 300 297 293 293 297 298
158 166 168 175 198 233 252 239 179 130 269 243 221 247 256 115 289 277 294 299 295 303 308 307 317 332 326 316 338 333 304 304 297 292 291 294 293 294 296 295 298 300 300 299
155 177 197 196 220 255 264 230 140 175 248 296 232 243 219 208 229 266 308 324 330 335 332 338 348 342 319 323 355 334 312 299 295 303 304 300 298 297 297 301 304 306 307 308
181 179 191 177 210 248 213 139 179 226 289 304 288 273 235 252 285 306 317 327 341 348 344 349 354 342 343 353 1 329 311 309 318 320 316 311 307 308 311 311 311 311 310 311
201 192 185 195 217 255 190 202 240 257 285 293 292 286 243 270 298 315 318 323 327 338 339 345 350 344 345 352 355 313 312 326 330 328 319 319 322 319 316 313 312 315 315 313
248 192 177 240 258 262 267 274 273 269 265 287 288 268 249 262 286 307 313 322 327 333 336 337 346 342 331 334 335 313 317 329 331 325 320 321 323 324 326 324 317 315 314 311
213 182 197 241 266 294 278 250 256 275 281 293 311 293 258 247 296 297 303 311 319 326 330 336 333 320 317 326 329 329 330 337 333 325 320 322 324 322 324 320 315 312 304 299
202 193 199 235 232 221 250 251 240 250 273 271 276 309 310 258 285 302 307 311 319 325 334 336 329 322 318 324 324 327 333 337 331 326 325 323 321 319 322 324 324 320 315 317
Height
1462 1467 1469 1467 1468 1469 1472 1476 1476 1473 1472 1473 1472 1466 1459 1457 1458 1457 1456 1457 1458 1459 1461 1463 1465 1466 1467 1467 1468 1468 1469 1469 1469 1468 1467 1466 1465 1464 1464 1463 1461 1460 1459 1458
1465 1466 1462 1464 1467 1469 1472 1475 1475 1473 1472 1472 1471 1465 1456 1452 1452 1451 1451 1452 1453 1455 1457 1459 1461 1462 1463 1464 1464 1465 1465 1465 1465 1465 1464 1463 1462 1460 1459 1458 1457 1456 1455 1454
1460 1460 1459 1463 1466 1469 1471 1473 1473 1473 1473 1473 1473 1461 1452 1447 1447 1446 1446 1447 1448 1450 1452 1455 1457 1458 1459 1460 1461 1461 1462 1462 1462 1461 1460 1459 1458 1456 1455 1454 1453 1452 1451 1449
1459 1458 1459 1461 1463 1466 1469 1468 1470 1472 1477 1480 1477 1474 1452 1447 1446 1443 1442 1442 1443 1445 1448 1450 1453 1454 1456 1457 1458 1458 1458 1458 1458 1457 1456 1455 1453 1452 1450 1449 1448 1447 1446 1445
1456 1456 1457 1459 1460 1462 1466 1468 1471 1474 1478 1482 1480 1480 1456 1448 1444 1439 1437 1438 1439 1441 1444 1446 1448 1450 1452 1454 1455 1455 1455 1455 1454 1453 1452 1451 1449 1448 1446 1445 1443 1442 1441 1440
1454 1454 1455 1456 1458 1461 1466 1471 1476 1481 1483 1481 1476 1478 1458 1448 1439 1435 1434 1434 1435 1438 1440 1443 1445 1447 1449 1450 1451 1451 1451 1450 1450 1449 1448 1446 1445 1443 1442 1440 1438 1437 1435 1434
1454 1454 1454 1455 1459 1463 1464 1472 1481 1480 1487 1478 1473 1473 1453 1436 1433 1432 1431 1431 1432 1434 1437 1439 1441 1443 1444 1446 1446 1447 1446 1446 1446 1445 1443 1442 1440 1439 1437 1435 1433 1432 1430 1429
1455 1456 1452 1452 1454 1459 1463 1464 1473 1474 1478 1474 1474 1469 1443 1431 1429 1429 1429 1429 1430 1432 1433 1435 1437 1439 1440 1441 1442 1443 1442 1441 1441 1440 1438 1437 1436 1434 1432 1431 1429 1427 1425 1423
1451 1452 1450 1450 1451 1454 1462 1466 1467 1478 1484 1479 1469 1461 1441 1428 1427 1426 1427 1427 1427 1429 1431 1432 1434 1435 1437 1438 1438 1438 1438 1437 1436 1435 1434 1432 1431 1429 1427 1426 1424 1421 1420 1418
1445 1452 1451 1451 1452 1454 1456 1462 1471 1475 1473 1468 1460 1457 1444 1428 1425 1425 1426 1425 1425 1427 1428 1430 1431 1432 1433 1434 1434 1434 1434 1433 1432 1431 1429 1427 1426 1424 1422 1420 1418 1416 1414 1412
1443 1451 1454 1453 1453 1455 1459 1462 1464 1471 1471 1470 1465 1447 1429 1426 1424 1424 1424 1423 1424 1425 1426 1427 1428 1429 1430 1430 1430 1429 1429 1428 1427 1425 1424 1422 1420 1418 1416 1414 1412 1410 1408 1406
1442 1449 1455 1453 1452 1451 1452 1455 1461 1463 1469 1474 1470 1448 1422 1423 1422 1422 1422 1422 1423 1424 1425 1425 1426 1426 1426 1426 1425 1425 1424 1423 1422 1420 1419 1417 1415 1413 1411 1409 1407 1405 1402 1400
1439 1446 1451 1451 1456 1455 1453 1454 1456 1460 1467 1475 1469 1442 1422 1422 1421 1421 1421 1421 1422 1422 1423 1423 1423 1423 1422 1422 1421 1420 1420 1418 1417 1416 1414 1412 1410 1408 1406 1404 1402 1400 1397 1394
1434 1441 1442 1441 1439 1446 1451 1452 1453 1456 1461 1465 1456 1437 1425 1422 1421 1420 1420 1420 1420 1421 1421 1420 1420 1420 1419 1418 1417 1416 1415 1414 1413 1411 1410 1408 1406 1404 1402 1400 1398 1395 1392 1390
1433 1439 1440 1439 1439 1442 1442 1443 1447 1448 1447 1448 1439 1436 1423 1420 1420 1419 1419 1419 1418 1418 1418 1417 1417 1416 1416 1415 1414 1413 1411 1410 1409 1407 1406 1404 1402 1400 1398 1396 1393 1390 1388 1385
1433 1438 1440 1440 1438 1438 1438 1437 1439 1440 1439 1438 1434 1429 1419 1418 1418 1418 1417 1417 1416 1415 1414 1414 1413 1413 1412 1411 1410 1409 1408 1407 1405 1403 1402 1400 1398 1395 1393 1391 1388 1386 1383 1381
1435 1437 1439 1440 1439 1437 1435 1427 1428 1430 1428 1428 1426 1418 1417 1417 1416 1415 1414 1413 1412 1411 1411 1410 1410 1409 1408 1408 1407 1405 1404 1403 1401 1399 1398 1396 1394 1391 1389 1387 1384 1381 1379 1376
1432 1435 1439 1441 1441 1436 1419 1415 1416 1418 1418 1418 1416 1413 1414 1413 1412 1411 1411 1410 1409 1408 1407 1407 1406 1406 1405 1404 1403 1402 1401 1399 1398 1396 1394 1392 1390 1387 1385 1382 1380 1377 1374 1371
1425 1431 1437 1438 1437 1428 1417 1414 1415 1417 1415 1412 1413 1411 1411 1411 1410 1408 1407 1407 1406 1406 1405 1404 1403 1403 1402 1401 1400 1399 1397 1396 1394 1392 1390 1389 1386 1384 1381 1378 1376 1373 1370 1367
1424 1426 1432 1434 1431 1425 1412 1411 1410 1414 1415 1408 1408 1408 1409 1410 1413 1407 1404 1404 1403 1402 1402 1401 1400 1400 1399 1398 1397 1395 1394 1392 1391 1389 1387 1385 1383 1380 1378 1375 1372 1369 1366 1363
1424 1426 1427 1429 1428 1420 1412 1410 1410 1417 1411 1406 1405 1405 1406 1407 1406 1404 1402 1401 1401 1400 1399 1399 1398 1397 1396 1395 1394 1392 1390 1389 1388 1386 1384 1382 1380 1377 1375 1372 1369 1366 1362 1359
1419 1423 1425 1427 1425 1418 1409 1410 1412 1409 1405 1404 1403 1403 1403 1403 1402 1401 1401 1399 1399 1398 1397 1396 1395 1395 1394 1393 1392 1389 1388 1387 1385 1382 1380 1378 1376 1374 1371 1368 1365 1362 1359 1356
1416 1415 1416 1417 1413 1407 1405 1405 1405 1405 1404 1403 1402 1401 1401 1401 1400 1400 1399 1398 1397 1396 1396 1395 1394 1392 1392 1391 1390 1387 1385 1384 1381 1379 1377 1375 1373 1370 1368 1365 1362 1359 1356 1353
1413 1411 1413 1413 1407 1404 1404 1403 1403 1403 1402 1401 1401 1400 1400 1399 1399 1398 1397 1396 1396 1395 1394 1393 1392 1390 1389 1389 1387 1385 1383 1381 1379 1376 1374 1372 1369 1367 1365 1362 1359 1356 1353 1350
1408 1409 1409 1408 1404 1402 1401 1401 1401 1400 1400 1399 1399 1399 1399 1398 1397 1397 1396 1395 1394 1393 1393 1391 1390 1388 1387 1386 1384 1383 1381 1378 1376 1374 1372 1369 1367 1364 1362 1359 1357 1354 1351 1349
1404 1405 1405 1402 1399 1400 1398 1398 1398 1398 1397 1397 1397 1397 1397 1397 1396 1395 1394 1393 1393 1392 1390 1389 1388 1386 1385 1383 1382 1380 1378 1376 1373 1371 1369 1366 1364 1361 1359 1356 1353 1351 1349 1346